Location: Newark
(46.9000°N, 28.3500°E)
Time: 17:37:22
(UTC+00:00)

Explorer 7 - Pass Details

Date: 26 August 2019
Orbit: 485 x 680 km, 50.3° (Epoch: 17 October)

Event Time Altitude Azimuth Distance (km) Brightness Sun altitude
Rises 04:49:35 0° 188° (S) 3,020 10.5 14.6°
Reaches altitude 10° 04:52:55 10° 165° (SSE) 2,104 10.1 15.2°
Maximum altitude 04:55:34 15° 132° (SE) 1,800 10.4 15.7°
Drops below altitude 10° 04:58:11 10° 99° (E) 2,083 12.3 16.1°
Sets 05:01:27 0° 76° (ENE) 2,969 12.0 16.7°
